Simultaneous Nadir Overpasses (SNOs) Predictions

Prediction of SNOs between GOES-16 and NOAA-19 Satellite Orbit:

Table of predicted SNOs for the next 14.0 days since TLE Epoch: 1/8/2022
Index Date Time (GOES-16) GOES-16 Lat,Lon NOAA-19 Lat,Lon Distance(km) Time Diff (sec)
1 01/08/2022 12:18:35 -0.04, -75.19 -0.32, -73.93 143.39 80
2 01/09/2022 12:06:49 -0.05, -75.20 -1.03, -71.07 472.36 80
3 01/11/2022 00:41:58 0.04, -75.19 -0.83, -78.83 416.62 80
4 01/12/2022 00:30:12 0.04, -75.20 -0.12, -75.97 87.34 80
5 01/13/2022 00:15:44 0.04, -75.21 0.53, -73.09 242.07 80
6 01/15/2022 12:39:09 -0.03, -75.25 0.62, -77.99 313.44 80
7 01/16/2022 12:24:43 -0.03, -75.27 -0.09, -75.13 16.54 80
8 01/17/2022 12:12:55 -0.03, -75.28 -0.75, -72.25 346.14 80
9 01/20/2022 00:36:18 0.03, -75.30 -0.41, -77.15 211.66 80
10 01/21/2022 00:21:51 0.02, -75.31 0.24, -74.27 118.82 80
11 01/22/2022 00:10:04 0.01, -75.33 0.95, -71.40 449.47 80
